Tracking 28790 objects as of 18-Apr-2024
HD Live streaming from Space Station
objects crossing your sky now

FENGYUN 1C DEB

Track FENGYUN 1C DEB now!
10-day predictions


NORAD ID: 36230
Int'l Code: 1999-025DVF
Perigee: 839.2 km
Apogee: 1,165.4 km
Inclination: 99.5 °
Period: 105.0 minutes
Semi major axis: 7373 km
RCS: 0.0137 m2 (small)
Launch date: May 10, 1999
Source: People's Republic of China (PRC)
Launch site: Taiyaun Space Center, China (TSC)

Note: This is SATELLITE DEBRIS
Your satellite tracking list
Your tracking list is empty




NASA's NSSDC Master Catalog

Two Line Element Set (TLE):
1 36230U 99025DVF 24106.94550039  .00002486  00000-0  23745-2 0  9990
2 36230  99.5446 177.6724 0221176 275.9209  81.6770 13.71222383822014
Source of the keplerian elements: AFSPC